Regional Weather Roundup
Issued by NWS Midland/Odessa, TX

Home | Current Version | Previous Version | Text Only | Print | Product List | Glossary On
Versions: 1 2 3 4 5 6 7 8 9 10 11 12 13 14 15 16 17 18 19 20 21 22 23 24 25 26 27 28 29 30 31 32 33 34 35 36 37 38 39 40 41 42 43 44 45 46 47 48 49 50
000
ASUS44 KMAF 012110
RWRMAF
MIDLAND AREA WEATHER ROUNDUP
NATIONAL WEATHER SERVICE MIDLAND TX
300 PM CST WED MAR 01 2017

...IN SOUTHWEST TEXAS AND SOUTHEAST NEW MEXICO...

CITY           SKY/WX    TMP DP  RH WIND       PRES   REMARKS
ALPINE         SUNNY     62  23  22 S3        30.28F
ANDREWS        FAIR      57  18  21 N5        30.26F
ARTESIA        SUNNY     59  23  25 S9        30.23F
BIG SPRING     SUNNY     58  14  17 NE8G17    30.27F
CARLSBAD       SUNNY     60  22  23 VRB6      30.22F
DRYDEN           N/A     72  25  17 N12G21    30.17F
FORT STOCKTON  SUNNY     64  24  21 N10       30.24F
GUAD PASS      SUNNY     62  18  18 SW22G31   30.24F
HOBBS          SUNNY     55  18  22 CALM      30.26F
MARFA          SUNNY     66  11  11 W9G18     30.23F
MIDLAND AIRPK  SUNNY     60  16  18 E10       30.26S
MIDLAND INTL   SUNNY     60  16  18 NE7       30.25F
ODESSA         SUNNY     61  17  18 N6        30.25F
PECOS          SUNNY     63  23  21 W3        30.24F
PRESIDIO       FAIR      74  22  14 S8        30.16F
SEMINOLE       SUNNY     58  17  19 E3        30.27S
SNYDER         SUNNY     56  15  19 NE13      30.27F
WINK           SUNNY     64  21  19 VRB5      30.23F
$$
...OTHER STATIONS IN TEXAS...

CITY           SKY/WX    TMP DP  RH WIND       PRES   REMARKS
ABILENE        SUNNY     59  17  19 N17       30.25F
AMARILLO       SUNNY     52  11  19 CALM      30.27F
AUSTIN         PTSUNNY   71  38  29 N20G29    30.13F
BROWNSVILLE    PTSUNNY   87  68  52 VRB3      29.93F
CORPUS CHRISTI CLOUDY    79  69  71 E10       29.99S
DALLAS FTW     MOSUNNY   67  13  12 N18G28    30.19F
DEL RIO        SUNNY     76  30  18 N9        30.14F
EL PASO        MOSUNNY   61  17  18 CALM      30.23F
HOUSTON INT    PTSUNNY   80  45  28 N16G26    30.03R
LUBBOCK        MOSUNNY   55  10  16 VRB3      30.26F
SAN ANGELO     SUNNY     63  20  19 N12G23    30.24F
SAN ANTONIO    MOSUNNY   74  37  26 N16       30.12F
WACO           SUNNY     67  28  23 N20G29    30.19S
WICHITA FALLS  NOT AVBL
$$
...OTHER LOCATIONS IN NEW MEXICO...

CITY           SKY/WX    TMP DP  RH WIND       PRES   REMARKS
ALAMAGORDO     SUNNY     59  14  17 NW12      30.23F
ALBUQUERQUE    SUNNY     47  -2  13 NW12G17   30.28F
CANNON AFB     SUNNY     53  17  24 S9        30.24F
CLOVIS         SUNNY     54  19  26 SE10      30.25F
HOLLOMAN AFB   SUNNY     58  14  17 N9G18     30.26F
ROSWELL        SUNNY     60  19  20 CALM        N/A
RUIDOSO        SUNNY     48   7  18 N14G20    30.26F
SANTA FE       SUNNY     45   7  21 N10       30.24F WCI  40
TRUTH OR CONSE SUNNY     54  18  24 VRB3      30.23F
TUCUMCARI      SUNNY     53  16  23 MISG      30.23F
$$




USA.gov is the U.S. government's official web portal to all federal, state and local government web resources and services.